Location: Most
(50.5330°N, 13.6500°E)
Time: 13:07:04
(UTC+02:00)

N. Korean satellite - Visible Passes

Search period start: 23 October 2021 00:00
Search period end: 01 November 2021 23:00
Orbit: 450 x 495 km, 97.3° (Epoch: 22 October)

Date Brightness Start Highest point End Pass type
(mag) Time Alt. Az. Time Alt. Az. Time Alt. Az.
23 Oct 6.8 06:27:33 10° NNE 06:31:14 76° E 06:34:53 10° S visible
23 Oct 10.1 18:41:24 10° WSW 18:43:13 13° W 18:45:03 10° WNW visible
24 Oct 8.3 05:59:39 10° NNE 06:03:05 36° E 06:06:27 10° SSE visible
25 Oct 9.6 05:32:09 10° NE 05:34:47 18° E 05:37:23 10° SE visible
25 Oct 7.0 07:04:43 10° N 07:08:11 40° WNW 07:11:36 10° SW visible
26 Oct 6.5 06:36:28 10° NNE 06:40:08 85° WNW 06:43:46 10° SSW visible
26 Oct 10.4 18:51:16 10° WSW 18:52:12 11° W 18:53:08 10° WNW visible
27 Oct 7.8 06:08:27 10° NNE 06:12:00 45° E 06:15:28 10° S visible
27 Oct 9.7 18:20:59 10° SW 18:23:47 21° W 18:26:37 10° NW visible
28 Oct 9.2 05:40:45 10° NE 05:43:42 22° E 05:46:36 10° SSE visible
28 Oct 7.3 07:13:40 10° N 07:16:59 32° WNW 07:20:14 10° SW visible
29 Oct 10.1 05:13:57 10° ENE 05:15:18 12° E 05:16:38 10° ESE visible
29 Oct 6.5 06:45:19 10° N 06:48:57 67° WNW 06:52:32 10° SSW visible
30 Oct 7.3 06:17:12 10° NNE 06:20:48 57° E 06:24:21 10° S visible
30 Oct 9.9 18:30:11 10° SW 18:32:38 17° W 18:35:08 10° NW visible
31 Oct 8.8 04:49:22 10° NE 04:52:32 27° E 04:55:39 10° SSE visible
01 Nov 9.9 04:22:06 10° NE 04:24:08 14° E 04:26:09 10° ESE visible
01 Nov 6.7 05:54:07 10° N 05:57:40 52° WNW 06:01:10 10° SSW visible
